Weather History for Harare Kutsaga, Zimbabwe

Change the Weather History Date:

Tuesday, July 9, 2013

  Actual Average Record
Temperature  
Mean Temperature 54 °F -  
Max Temperature 67 °F 72 °F 80 °F (2008)
Min Temperature 41 °F 43 °F 39 °F (2003)
Degree Days  
Heating Degree Days 11    
Growing Degree Days 4 (Base 50)    
Moisture  
Dew Point 41 °F    
Average Humidity 63    
Maximum Humidity 100    
Minimum Humidity 22    
Precipitation  
Precipitation 0.00 in 0.00 in - ()
Sea Level Pressure  
Sea Level Pressure 30.36 in    
Wind  
Wind Speed 6 mph ()    
Max Wind Speed 15 mph    
Max Gust Speed 29 mph    
Visibility 15.8 miles    
Events      
Averages and records for this station are not official NWS values.
T = Trace of Precipitation, MM = Missing Value Source: Averaged Metar Reports

Daily Weather History Graph

Daily Weather History Graph

Search for Another Location

Airport:

Trip Planner

Search our weather history database for the weather conditions in past years. The results will help you decide how hot, cold, wet, or windy it might be!

Date:

Astronomy

Jul. 09, 2013 Rise Set
Actual Time 6:27 AM CAT 5:34 PM CAT
Civil Twilight 6:03 AM CAT 5:57 PM CAT
Nautical Twilight 5:36 AM CAT 6:24 PM CAT
Astronomical Twilight 5:10 AM CAT 6:51 PM CAT
Moon 7:00 AM CAT (7/9) 6:40 PM CAT (7/9)
Length of Visible Light 11h 53m
Length of Day
11h 06m
New Moon, 1% of the Moon is Illuminated
Jul 9
New Moon
Jul 16
First Quarter
Jul 22
Full
Jul 29
Last Quarter
Aug 6
New

Hourly Weather History & Observations

Time (CAT) Temp. Windchill Dew Point Humidity Pressure Visibility Wind Dir Wind Speed Gust Speed Precip Events Conditions
12:00 AM 48.2 °F - 44.6 °F 87% 30.39 in - ESE 5.8 mph - N/A   Clear
1:00 AM 46.4 °F 44.3 °F 42.8 °F 87% 30.39 in - ESE 4.6 mph - N/A   Clear
2:00 AM 46 °F - 44 °F 89%  in 19 mi ESE 5.8 mph - -  
2:00 AM 46.4 °F 43.5 °F 44.6 °F 93% 30.36 in - ESE 5.8 mph - N/A   Clear
5:00 AM 44.6 °F 42.2 °F 42.8 °F 93% 30.33 in - ESE 4.6 mph - N/A   Clear
6:00 AM 44.6 °F 42.2 °F 42.8 °F 93% 30.36 in - ESE 4.6 mph - N/A   Clear
7:00 AM 42.8 °F 40.1 °F 42.8 °F 100% 30.36 in - East 4.6 mph - N/A   Clear
8:00 AM 51 °F - 48 °F 87%  in 6 mi ESE 4.6 mph - -   Haze
8:00 AM 50.0 °F - 46.4 °F 87% 30.39 in - ESE 4.6 mph - N/A   Clear
9:00 AM 57.2 °F - 46.4 °F 67% 30.39 in - SE 6.9 mph - N/A   Clear
10:00 AM 60.8 °F - 41.0 °F 48% 30.39 in - SE 6.9 mph - N/A   Clear
11:00 AM 62.6 °F - 39.2 °F 42% 30.39 in - SE 11.5 mph - N/A   Clear
12:00 PM 66.2 °F - 39.2 °F 37% 30.36 in - SSE 15.0 mph 28.8 mph N/A   Clear
1:00 PM 66.2 °F - 39.2 °F 37% 30.36 in - SSE 15.0 mph 26.5 mph N/A   Clear
2:00 PM 67 °F - 37 °F 22%  in 19 mi SSE 11.5 mph - -  
2:00 PM 66.2 °F - 37.4 °F 35% 30.33 in - SSE 11.5 mph - N/A   Clear
3:00 PM 66.2 °F - 35.6 °F 32% 30.30 in - ENE 13.8 mph - N/A   Clear
4:00 PM 64.4 °F - 37.4 °F 37% 30.30 in - SSE 11.5 mph - N/A   Clear
5:00 PM 62.6 °F - 37.4 °F 39% 30.33 in - SSE 9.2 mph - N/A   Clear
7:00 PM 55.4 °F - 37.4 °F 51% 30.33 in - SSE 5.8 mph - N/A   Clear
8:00 PM 52 °F - 37 °F 46%  in 19 mi SSE 4.6 mph - -  
8:00 PM 51.8 °F - 37.4 °F 58% 30.36 in - SSE 4.6 mph - N/A   Clear
9:00 PM 50.0 °F - 37.4 °F 62% 30.36 in - ESE 3.5 mph - N/A   Clear
10:00 PM 48.2 °F - 37.4 °F 66% 30.36 in - Variable 2.3 mph - N/A   Clear
11:00 PM 44.6 °F 42.2 °F 37.4 °F 76% 30.39 in - ESE 4.6 mph - N/A   Clear